QPF
0.00 0.00 0.00 0.00 0.00 0.00 0.00 0.00 0.00 0.00 0.00 0.00 0.00 0.00 0.00 0.00 0.00 0.00 0.00 0.00 0.00 0.00 0.00 0.00 0.00 0.00 0.00 0.00 0.00 0.00 0.00 0.00 0.00 0.00 0.00 0.00 0.00 0.00 0.00 0.00 0.00 0.00 0.00
0.00 0.00 0.00 0.00 0.00 0.00 0.00 0.00 0.00 0.00 0.00 0.00 0.00 0.00 0.00 0.00 0.00 0.00 0.00 0.00 0.00 0.00 0.00 0.00 0.00 0.00 0.00 0.00 0.00 0.00 0.00 0.00 0.00 0.00 0.00 0.00 0.00 0.00 0.00 0.00 0.00 0.00 0.00
0.00 0.00 0.00 0.00 0.00 0.00 0.00 0.00 0.00 0.00 0.00 0.00 0.00 0.00 0.00 0.00 0.00 0.00 0.00 0.00 0.00 0.00 0.00 0.00 0.00 0.00 0.00 0.00 0.00 0.00 0.00 0.00 0.00 0.00 0.00 0.00 0.00 0.00 0.00 0.00 0.00 0.00 0.00
0.00 0.00 0.00 0.00 0.00 0.00 0.00 0.00 0.00 0.00 0.00 0.00 0.00 0.00 0.00 0.00 0.00 0.00 0.00 0.00 0.00 0.00 0.00 0.00 0.00 0.00 0.00 0.00 0.00 0.00 0.00 0.00 0.00 0.00 0.00 0.00 0.00 0.00 0.00 0.00 0.00 0.00 0.00
0.00 0.00 0.00 0.00 0.00 0.00 0.00 0.00 0.00 0.00 0.00 0.00 0.00 0.00 0.00 0.00 0.00 0.00 0.00 0.00 0.00 0.00 0.00 0.00 0.00 0.00 0.00 0.00 0.00 0.00 0.00 0.00 0.00 0.00 0.00 0.00 0.00 0.00 0.00 0.00 0.00 0.00 0.00
0.00 0.00 0.00 0.00 0.00 0.00 0.00 0.00 0.00 0.00 0.00 0.00 0.00 0.00 0.00 0.00 0.00 0.00 0.00 0.00 0.00 0.00 0.00 0.00 0.00 0.00 0.00 0.00 0.00 0.00 0.00 0.00 0.00 0.00 0.00 0.00 0.00 0.00 0.00 0.00 0.00 0.00 0.00
0.00 0.00 0.00 0.00 0.00 0.00 0.00 0.00 0.00 0.00 0.00 0.00 0.00 0.00 0.00 0.00 0.00 0.00 0.00 0.00 0.00 0.00 0.00 0.00 0.00 0.00 0.00 0.00 0.00 0.00 0.00 0.00 0.00 0.00 0.00 0.00 0.00 0.00 0.00 0.00 0.00 0.00 0.00
0.00 0.00 0.00 0.00 0.00 0.00 0.00 0.00 0.00 0.00 0.00 0.00 0.00 0.00 0.00 0.00 0.00 0.00 0.00 0.00 0.00 0.00 0.00 0.00 0.00 0.00 0.00 0.00 0.00 0.00 0.00 0.00 0.00 0.00 0.00 0.00 0.00 0.00 0.00 0.00 0.00 0.00 0.00
0.00 0.00 0.00 0.00 0.00 0.00 0.00 0.00 0.00 0.00 0.00 0.00 0.00 0.00 0.00 0.00 0.00 0.00 0.00 0.00 0.00 0.00 0.00 0.00 0.00 0.00 0.00 0.00 0.00 0.00 0.00 0.00 0.00 0.00 0.00 0.00 0.00 0.00 0.00 0.00 0.00 0.00 0.00
0.00 0.00 0.00 0.00 0.00 0.00 0.00 0.00 0.00 0.00 0.00 0.00 0.00 0.00 0.00 0.00 0.00 0.00 0.00 0.00 0.00 0.00 0.00 0.00 0.00 0.00 0.00 0.00 0.00 0.00 0.00 0.00 0.00 0.00 0.00 0.00 0.00 0.00 0.00 0.00 0.00 0.00 0.00
0.00 0.00 0.00 0.00 0.00 0.00 0.00 0.00 0.00 0.00 0.00 0.00 0.00 0.00 0.00 0.00 0.00 0.00 0.00 0.00 0.00 0.00 0.00 0.00 0.00 0.00 0.00 0.00 0.00 0.00 0.00 0.00 0.00 0.00 0.00 0.00 0.00 0.00 0.00 0.00 0.00 0.00 0.00
0.00 0.00 0.00 0.00 0.00 0.00 0.00 0.00 0.00 0.00 0.00 0.00 0.00 0.00 0.00 0.00 0.00 0.00 0.00 0.00 0.00 0.00 0.00 0.00 0.00 0.00 0.00 0.00 0.00 0.00 0.00 0.00 0.00 0.00 0.00 0.00 0.00 0.00 0.00 0.00 0.00 0.00 0.00
0.00 0.00 0.00 0.00 0.00 0.00 0.00 0.00 0.00 0.00 0.00 0.00 0.00 0.00 0.00 0.00 0.00 0.00 0.00 0.00 0.00 0.00 0.00 0.00 0.00 0.00 0.00 0.00 0.00 0.00 0.00 0.00 0.00 0.00 0.00 0.00 0.00 0.00 0.00 0.00 0.00 0.00 0.00
0.00 0.00 0.00 0.00 0.00 0.00 0.00 0.00 0.00 0.00 0.00 0.00 0.00 0.00 0.00 0.00 0.00 0.00 0.00 0.00 0.00 0.00 0.00 0.00 0.00 0.00 0.00 0.00 0.00 0.00 0.00 0.00 0.00 0.00 0.00 0.00 0.00 0.00 0.00 0.00 0.00 0.00 0.00
0.00 0.00 0.00 0.00 0.00 0.00 0.00 0.00 0.00 0.00 0.00 0.00 0.00 0.00 0.00 0.00 0.00 0.00 0.00 0.00 0.00 0.00 0.00 0.00 0.00 0.00 0.00 0.00 0.00 0.00 0.00 0.00 0.00 0.00 0.00 0.00 0.00 0.00 0.00 0.00 0.00 0.00 0.00
0.00 0.00 0.00 0.00 0.00 0.00 0.00 0.00 0.00 0.00 0.00 0.00 0.00 0.00 0.00 0.00 0.00 0.00 0.00 0.00 0.00 0.00 0.00 0.00 0.00 0.00 0.00 0.00 0.00 0.00 0.00 0.00 0.00 0.00 0.00 0.00 0.00 0.00 0.00 0.00 0.00 0.00 0.00
0.00 0.00 0.00 0.00 0.00 0.00 0.00 0.00 0.00 0.00 0.00 0.00 0.00 0.00 0.00 0.00 0.00 0.00 0.00 0.00 0.00 0.00 0.00 0.00 0.00 0.00 0.00 0.00 0.00 0.00 0.00 0.00 0.00 0.00 0.00 0.00 0.00 0.00 0.00 0.00 0.00 0.00 0.00
0.00 0.00 0.00 0.00 0.00 0.00 0.00 0.00 0.00 0.00 0.00 0.00 0.00 0.00 0.00 0.00 0.00 0.00 0.00 0.00 0.00 0.00 0.00 0.00 0.00 0.00 0.00 0.00 0.00 0.00 0.00 0.00 0.00 0.00 0.00 0.00 0.00 0.00 0.00 0.00 0.00 0.00 0.00
0.00 0.00 0.00 0.00 0.00 0.00 0.00 0.00 0.00 0.00 0.00 0.00 0.00 0.00 0.00 0.00 0.00 0.00 0.00 0.00 0.00 0.00 0.00 0.00 0.00 0.00 0.00 0.00 0.00 0.00 0.00 0.00 0.00 0.00 0.00 0.00 0.00 0.00 0.00 0.00 0.00 0.00 0.00
0.00 0.00 0.00 0.00 0.00 0.00 0.00 0.00 0.00 0.00 0.00 0.00 0.00 0.00 0.00 0.00 0.00 0.00 0.00 0.00 0.00 0.00 0.00 0.00 0.00 0.00 0.00 0.00 0.00 0.00 0.00 0.00 0.00 0.00 0.00 0.00 0.00 0.00 0.00 0.00 0.00 0.00 0.00
0.00 0.00 0.00 0.00 0.00 0.00 0.00 0.00 0.00 0.00 0.00 0.00 0.00 0.00 0.00 0.00 0.00 0.00 0.00 0.00 0.00 0.00 0.00 0.00 0.00 0.00 0.00 0.00 0.00 0.00 0.00 0.00 0.00 0.00 0.00 0.00 0.00 0.00 0.00 0.00 0.00 0.00 0.00
0.00 0.00 0.00 0.00 0.00 0.00 0.00 0.00 0.00 0.00 0.00 0.00 0.00 0.00 0.00 0.00 0.00 0.00 0.00 0.00 0.00 0.00 0.00 0.00 0.00 0.00 0.00 0.00 0.00 0.00 0.00 0.00 0.00 0.00 0.00 0.00 0.00 0.00 0.00 0.00 0.00 0.00 0.00
0.00 0.00 0.00 0.00 0.00 0.00 0.00 0.00 0.00 0.00 0.00 0.00 0.00 0.00 0.00 0.00 0.00 0.00 0.00 0.00 0.00 0.00 0.00 0.00 0.00 0.00 0.00 0.00 0.00 0.00 0.00 0.00 0.00 0.00 0.00 0.00 0.00 0.00 0.00 0.00 0.00 0.00 0.00
0.00 0.00 0.00 0.00 0.00 0.00 0.00 0.00 0.00 0.00 0.00 0.00 0.00 0.00 0.00 0.00 0.00 0.00 0.00 0.00 0.00 0.00 0.00 0.00 0.00 0.00 0.00 0.00 0.00 0.00 0.00 0.00 0.00 0.00 0.00 0.00 0.00 0.00 0.00 0.00 0.00 0.00 0.00
0.00 0.00 0.00 0.00 0.00 0.00 0.00 0.00 0.00 0.00 0.00 0.00 0.00 0.00 0.00 0.00 0.00 0.00 0.00 0.00 0.00 0.00 0.00 0.00 0.00 0.00 0.00 0.00 0.00 0.00 0.00 0.00 0.00 0.00 0.00 0.00 0.00 0.00 0.00 0.00 0.00 0.00 0.00
0.00 0.00 0.00 0.00 0.00 0.00 0.00 0.00 0.00 0.00 0.00 0.00 0.00 0.00 0.00 0.00 0.00 0.00 0.00 0.00 0.00 0.00 0.00 0.00 0.00 0.00 0.00 0.00 0.00 0.00 0.00 0.00 0.00 0.00 0.00 0.00 0.00 0.00 0.00 0.00 0.00 0.00 0.00
MSLP
1027.21 1026.88 1026.59 1026.19 1025.83 1025.44 1025.09 1024.62 1024.22 1023.64 1023.16 1022.94 1022.67 1022.51 1022.27 1022.00 1021.54 1021.09 1020.95 1020.94 1020.88 1021.00 1021.03 1021.14 1021.42 1021.45 1021.57 1021.57 1021.58 1021.67 1021.94 1022.11 1022.59 1022.41 1022.18 1021.58 1021.22 1021.02 1020.84 1020.60 1020.39 1020.31 1020.11
1027.17 1026.91 1026.57 1026.15 1025.79 1025.52 1025.14 1024.72 1024.27 1024.02 1023.54 1023.27 1023.08 1022.98 1022.79 1022.52 1022.19 1021.81 1021.57 1021.50 1021.50 1021.58 1021.59 1021.58 1021.71 1021.72 1021.82 1021.84 1021.86 1022.05 1022.18 1022.25 1022.50 1022.65 1022.31 1021.92 1021.46 1021.07 1020.81 1020.66 1020.21 1019.85 1019.72
1027.17 1026.88 1026.51 1026.12 1025.75 1025.56 1025.25 1024.83 1024.52 1024.23 1023.88 1023.63 1023.49 1023.39 1023.25 1023.02 1022.73 1022.43 1022.22 1022.09 1022.08 1022.08 1022.05 1022.02 1022.08 1022.01 1022.12 1022.12 1022.15 1022.22 1022.28 1022.32 1022.37 1022.52 1022.52 1022.14 1021.68 1021.20 1020.87 1020.60 1020.23 1019.74 1019.30
1027.05 1026.78 1026.48 1026.19 1025.85 1025.55 1025.29 1025.03 1024.77 1024.56 1024.29 1024.04 1023.93 1023.80 1023.63 1023.40 1023.08 1022.82 1022.66 1022.59 1022.54 1022.46 1022.37 1022.30 1022.23 1022.10 1022.04 1022.03 1022.08 1022.15 1022.19 1022.30 1022.37 1022.42 1022.42 1022.24 1021.88 1021.19 1021.15 1021.03 1020.48 1019.88 1019.29
1027.07 1026.79 1026.54 1026.19 1025.86 1025.56 1025.25 1025.07 1024.86 1024.64 1024.38 1024.14 1024.08 1024.04 1023.88 1023.66 1023.40 1023.04 1022.94 1022.90 1022.82 1022.74 1022.64 1022.50 1022.28 1021.91 1021.74 1021.81 1021.87 1021.99 1022.09 1022.18 1022.25 1022.36 1022.35 1022.19 1021.87 1021.53 1021.32 1020.98 1020.73 1020.08 1019.29
1027.31 1026.98 1026.59 1026.19 1025.85 1025.60 1025.35 1025.12 1024.93 1024.74 1024.41 1024.23 1024.22 1024.22 1024.11 1023.85 1023.54 1023.15 1023.11 1023.17 1023.16 1023.11 1023.07 1022.86 1022.65 1022.28 1022.12 1021.83 1021.66 1021.51 1021.70 1021.94 1022.10 1022.27 1022.28 1022.20 1021.76 1021.47 1021.15 1020.94 1020.70 1020.30 1019.85
1027.43 1027.03 1026.66 1026.29 1025.94 1025.62 1025.33 1025.16 1024.96 1024.88 1024.69 1024.62 1024.54 1024.45 1024.35 1024.10 1023.78 1023.54 1023.24 1023.32 1023.35 1023.33 1023.20 1022.96 1022.65 1022.38 1022.22 1021.96 1021.64 1021.44 1021.26 1021.18 1021.26 1021.49 1021.71 1021.58 1021.36 1020.98 1020.77 1020.64 1020.48 1020.39 1020.01
1027.51 1027.16 1026.65 1026.36 1026.04 1025.70 1025.44 1025.20 1025.10 1025.03 1024.98 1024.97 1024.89 1024.72 1024.56 1024.28 1023.92 1023.75 1023.45 1023.36 1023.28 1023.14 1022.97 1022.78 1022.60 1022.39 1022.22 1022.14 1021.90 1021.43 1021.07 1020.90 1020.67 1020.67 1020.61 1020.34 1020.40 1019.74 1019.87 1019.88 1019.96 1019.95 1019.28
1027.56 1027.26 1026.89 1026.56 1026.16 1025.80 1025.68 1025.51 1025.31 1025.19 1025.14 1025.12 1025.02 1024.85 1024.70 1024.37 1024.03 1023.72 1023.46 1023.28 1023.09 1022.90 1022.69 1022.50 1022.41 1022.35 1022.14 1022.12 1021.96 1021.69 1021.01 1020.61 1020.09 1019.98 1019.67 1019.75 1019.40 1018.72 1019.33 1019.77 1019.81 1019.91 1019.39
1027.58 1027.22 1026.88 1026.58 1026.37 1026.15 1025.93 1025.65 1025.48 1025.37 1025.26 1025.19 1025.12 1024.96 1024.80 1024.60 1024.04 1023.86 1023.55 1023.38 1023.26 1023.04 1022.65 1022.44 1022.21 1022.25 1021.99 1021.97 1022.07 1021.90 1021.39 1020.86 1020.35 1019.81 1019.45 1019.03 1018.77 1018.43 1018.24 1018.61 1018.95 1019.39 1019.45
1027.40 1027.14 1026.86 1026.62 1026.39 1026.20 1026.02 1025.86 1025.75 1025.57 1025.51 1025.47 1025.37 1025.25 1025.08 1024.84 1024.67 1024.32 1024.04 1023.73 1023.49 1023.14 1022.77 1022.42 1022.08 1021.87 1021.77 1021.67 1021.76 1021.70 1021.44 1021.07 1020.64 1020.37 1019.95 1019.42 1019.04 1018.89 1018.65 1018.66 1018.74 1018.81 1018.82
1027.32 1027.07 1026.86 1026.71 1026.57 1026.38 1026.17 1025.98 1025.99 1025.89 1025.82 1025.78 1025.72 1025.60 1025.31 1025.07 1024.66 1024.44 1024.25 1023.85 1023.31 1023.05 1022.78 1022.44 1022.11 1021.92 1021.71 1021.65 1021.76 1021.54 1021.31 1021.06 1020.87 1020.66 1020.44 1020.21 1019.93 1019.51 1019.06 1018.75 1018.42 1018.21 1018.13
1027.43 1027.22 1026.94 1026.74 1026.46 1026.28 1026.30 1026.26 1026.22 1026.22 1026.29 1026.14 1026.08 1025.99 1025.75 1025.17 1024.83 1024.37 1023.92 1023.65 1023.26 1022.96 1022.76 1022.52 1022.30 1022.09 1021.81 1021.83 1021.68 1021.56 1021.50 1021.35 1021.31 1021.29 1021.19 1020.87 1020.41 1020.00 1019.44 1018.96 1018.50 1018.25 1018.08
1027.50 1027.25 1026.83 1026.61 1026.29 1026.06 1026.05 1026.19 1026.36 1026.40 1026.35 1026.32 1026.28 1026.22 1025.94 1025.45 1024.90 1024.49 1024.05 1023.65 1023.24 1022.97 1022.81 1022.61 1022.38 1022.27 1022.17 1022.20 1022.07 1022.10 1021.94 1021.80 1021.77 1021.78 1021.60 1020.97 1020.42 1020.01 1019.83 1019.64 1019.47 1019.06 1018.86
1027.35 1027.12 1026.81 1026.51 1026.16 1025.99 1025.83 1025.88 1026.01 1026.06 1026.00 1026.20 1026.29 1026.27 1025.97 1025.49 1024.88 1024.67 1024.45 1023.92 1023.64 1023.35 1023.14 1022.96 1022.94 1023.02 1023.04 1022.89 1022.73 1022.60 1022.35 1022.08 1022.07 1021.91 1021.63 1021.25 1020.89 1020.54 1020.27 1020.02 1019.90 1019.79 1019.70
1027.28 1027.11 1026.88 1026.44 1026.01 1025.77 1025.76 1025.55 1025.44 1025.47 1025.58 1025.82 1025.81 1025.97 1025.61 1025.27 1024.83 1024.56 1024.13 1023.61 1023.26 1023.19 1023.40 1023.68 1023.78 1023.80 1023.69 1023.59 1023.44 1023.26 1022.92 1022.72 1022.54 1022.22 1021.84 1021.49 1021.37 1021.09 1020.83 1020.45 1020.22 1020.27 1020.09
1027.18 1026.94 1026.61 1026.21 1025.99 1025.76 1025.46 1025.39 1025.29 1024.92 1024.83 1025.13 1025.31 1025.37 1025.43 1024.92 1024.84 1024.63 1024.14 1023.66 1023.58 1023.24 1023.80 1024.04 1024.12 1024.06 1024.02 1023.97 1023.85 1023.72 1023.60 1023.23 1022.96 1022.60 1022.16 1021.83 1021.48 1021.15 1021.11 1020.92 1020.70 1020.56 1020.31
1026.67 1026.38 1026.26 1025.89 1025.57 1025.27 1025.09 1024.96 1024.98 1025.01 1024.96 1024.73 1024.44 1024.55 1024.42 1024.58 1024.54 1024.33 1023.87 1023.63 1023.99 1024.02 1024.21 1024.28 1024.29 1024.27 1024.28 1024.25 1024.11 1023.98 1023.73 1023.40 1023.11 1022.86 1022.49 1022.14 1021.79 1021.54 1021.36 1021.24 1021.08 1020.96 1020.68
1026.29 1025.99 1025.65 1025.32 1024.93 1024.78 1024.59 1024.57 1024.64 1024.68 1024.78 1024.76 1024.69 1024.35 1023.89 1023.83 1023.84 1023.84 1023.81 1024.08 1024.45 1024.57 1024.54 1024.47 1024.35 1024.35 1024.37 1024.34 1024.28 1024.15 1023.97 1023.77 1023.54 1023.20 1022.84 1022.44 1022.03 1021.75 1021.55 1021.39 1021.25 1021.04 1020.82
1025.84 1025.52 1025.28 1024.94 1024.65 1024.47 1024.25 1024.25 1024.25 1024.27 1024.37 1024.46 1024.61 1024.58 1024.14 1024.10 1024.11 1024.17 1024.16 1024.32 1024.44 1024.54 1024.54 1024.47 1024.41 1024.38 1024.41 1024.40 1024.35 1024.27 1024.13 1023.95 1023.72 1023.43 1023.04 1022.63 1022.22 1021.84 1021.66 1021.47 1021.34 1021.24 1021.10
1025.38 1025.17 1024.84 1024.60 1024.39 1024.05 1023.89 1023.95 1024.09 1024.03 1023.95 1024.08 1024.13 1023.87 1023.80 1024.03 1024.15 1024.19 1024.18 1024.22 1024.27 1024.30 1024.33 1024.36 1024.42 1024.42 1024.41 1024.40 1024.40 1024.35 1024.25 1024.10 1023.86 1023.61 1023.24 1022.77 1022.31 1021.94 1021.61 1021.44 1021.32 1021.25 1021.16
1024.90 1024.69 1024.46 1024.34 1023.84 1023.62 1023.52 1023.47 1023.71 1023.88 1023.53 1023.63 1023.71 1023.59 1023.60 1023.79 1023.82 1023.85 1023.91 1023.93 1023.96 1023.94 1023.97 1024.11 1024.29 1024.29 1024.27 1024.28 1024.31 1024.29 1024.23 1024.11 1023.88 1023.64 1023.31 1022.87 1022.43 1022.04 1021.70 1021.54 1021.36 1021.28 1021.24
1024.54 1024.21 1023.99 1023.65 1023.54 1023.28 1023.14 1023.10 1023.17 1023.38 1023.36 1023.08 1023.11 1023.31 1023.36 1023.39 1023.43 1023.43 1023.46 1023.54 1023.61 1023.66 1023.77 1023.94 1024.09 1024.21 1024.18 1024.12 1024.11 1024.13 1024.07 1023.92 1023.75 1023.62 1023.28 1022.89 1022.48 1022.10 1021.76 1021.59 1021.41 1021.35 1021.32
1023.89 1023.79 1023.69 1023.45 1023.09 1022.90 1022.94 1022.76 1022.52 1022.69 1022.72 1022.60 1022.62 1022.72 1022.79 1022.78 1022.85 1022.94 1023.07 1023.17 1023.24 1023.30 1023.44 1023.61 1023.76 1023.85 1023.93 1023.99 1023.96 1023.88 1023.78 1023.59 1023.42 1023.23 1023.05 1022.82 1022.43 1022.03 1021.76 1021.52 1021.38 1021.26 1021.27
1023.27 1023.40 1023.32 1023.15 1023.00 1022.90 1022.57 1022.46 1022.27 1022.07 1022.13 1022.17 1022.31 1022.26 1022.13 1022.22 1022.40 1022.47 1022.59 1022.72 1022.91 1023.10 1023.19 1023.35 1023.55 1023.60 1023.66 1023.68 1023.69 1023.53 1023.42 1023.33 1023.13 1022.87 1022.69 1022.46 1022.13 1021.77 1021.62 1021.45 1021.29 1021.26 1021.15
1022.43 1022.68 1022.74 1022.71 1022.65 1022.34 1022.08 1022.15 1021.92 1021.73 1021.63 1021.45 1021.41 1021.69 1021.77 1021.82 1021.77 1021.91 1022.10 1022.32 1022.54 1022.69 1022.82 1023.06 1023.26 1023.34 1023.41 1023.49 1023.46 1023.43 1023.30 1023.04 1022.74 1022.47 1022.25 1021.96 1021.70 1021.46 1021.32 1021.30 1021.12 1021.19 1021.19
Thickness
5501 5497 5491 5486 5481 5473 5465 5458 5453 5452 5452 5452 5453 5455 5458 5462 5465 5470 5474 5477 5481 5482 5485 5488 5490 5493 5494 5496 5497 5497 5496 5494 5489 5488 5487 5490 5490 5488 5487 5488 5487 5486 5484
5502 5498 5493 5488 5483 5477 5471 5465 5460 5457 5456 5455 5455 5456 5458 5460 5463 5467 5471 5475 5478 5481 5484 5487 5489 5492 5492 5493 5494 5493 5492 5491 5488 5486 5484 5486 5487 5487 5487 5486 5487 5486 5484
5502 5499 5495 5491 5487 5483 5478 5473 5468 5464 5462 5461 5461 5461 5461 5462 5465 5468 5472 5476 5478 5480 5483 5486 5487 5490 5491 5492 5492 5492 5491 5490 5489 5486 5485 5485 5487 5488 5488 5488 5489 5490 5490
5504 5501 5498 5494 5491 5488 5485 5481 5477 5472 5470 5468 5467 5467 5467 5468 5471 5473 5476 5478 5480 5482 5485 5488 5490 5491 5492 5494 5494 5493 5493 5492 5490 5489 5487 5487 5488 5491 5488 5487 5489 5490 5491
5506 5504 5500 5498 5497 5494 5492 5488 5485 5481 5478 5477 5475 5474 5474 5475 5476 5479 5481 5482 5484 5486 5488 5490 5493 5495 5497 5498 5497 5496 5495 5494 5493 5492 5491 5489 5490 5490 5489 5488 5486 5489 5492
5505 5504 5503 5502 5502 5499 5497 5495 5492 5489 5487 5486 5484 5482 5481 5482 5483 5485 5487 5488 5489 5490 5491 5493 5496 5498 5500 5502 5503 5503 5501 5499 5496 5493 5492 5491 5492 5491 5491 5489 5487 5489 5488
5506 5506 5505 5505 5505 5503 5503 5501 5499 5496 5495 5492 5491 5490 5489 5490 5491 5493 5494 5495 5495 5496 5497 5499 5502 5504 5505 5507 5508 5508 5508 5507 5505 5501 5498 5496 5495 5496 5494 5492 5488 5485 5484
5507 5507 5508 5509 5509 5509 5508 5507 5505 5503 5501 5499 5497 5497 5497 5497 5499 5499 5501 5502 5502 5504 5505 5506 5507 5509 5511 5511 5512 5514 5515 5513 5513 5511 5509 5509 5505 5507 5502 5497 5493 5489 5489
5509 5509 5509 5511 5513 5514 5513 5512 5510 5509 5507 5506 5505 5505 5504 5505 5506 5508 5508 5509 5510 5512 5513 5514 5515 5515 5516 5516 5517 5517 5520 5520 5520 5519 5520 5516 5515 5516 5506 5499 5493 5490 5491
5511 5511 5513 5514 5515 5516 5516 5517 5517 5516 5514 5512 5511 5511 5512 5512 5515 5515 5516 5516 5517 5518 5521 5522 5522 5522 5523 5522 5520 5518 5521 5523 5522 5524 5523 5523 5520 5519 5516 5509 5502 5495 5490
5515 5515 5516 5518 5519 5520 5520 5521 5520 5521 5519 5517 5517 5516 5516 5517 5518 5519 5520 5521 5521 5524 5527 5528 5529 5529 5529 5529 5527 5524 5525 5523 5523 5521 5521 5521 5520 5517 5515 5511 5505 5500 5493
5517 5519 5519 5520 5521 5522 5522 5523 5522 5522 5523 5522 5521 5521 5522 5523 5525 5525 5525 5527 5528 5530 5532 5532 5534 5535 5534 5532 5529 5528 5528 5527 5524 5522 5520 5518 5516 5514 5514 5511 5508 5505 5500
5518 5520 5521 5523 5526 5527 5526 5526 5526 5524 5523 5524 5523 5522 5524 5528 5529 5531 5533 5535 5535 5536 5535 5536 5536 5536 5535 5534 5532 5531 5529 5526 5523 5520 5515 5514 5512 5512 5511 5509 5506 5503 5499
5520 5521 5525 5527 5529 5531 5531 5529 5529 5528 5526 5526 5526 5526 5527 5530 5533 5536 5538 5540 5540 5540 5539 5539 5539 5537 5535 5533 5531 5528 5526 5523 5520 5517 5514 5513 5513 5511 5507 5502 5498 5494 5491
5522 5523 5526 5529 5532 5533 5535 5534 5534 5534 5534 5531 5529 5529 5530 5533 5537 5538 5539 5541 5542 5541 5541 5539 5537 5534 5532 5530 5528 5526 5525 5523 5519 5516 5513 5512 5509 5507 5504 5499 5495 5490 5485
5522 5523 5525 5530 5534 5536 5536 5537 5539 5540 5539 5538 5536 5534 5536 5537 5540 5541 5543 5545 5545 5544 5540 5535 5532 5528 5527 5525 5524 5522 5520 5519 5516 5514 5512 5510 5506 5502 5499 5495 5491 5485 5480
5521 5523 5526 5531 5533 5535 5539 5537 5538 5542 5543 5542 5541 5540 5539 5541 5541 5542 5543 5543 5544 5543 5537 5532 5530 5528 5525 5523 5521 5519 5516 5514 5512 5511 5509 5506 5504 5500 5495 5490 5486 5480 5475
5522 5524 5526 5530 5533 5537 5539 5541 5539 5538 5539 5541 5543 5543 5544 5543 5543 5543 5544 5542 5539 5537 5533 5531 5528 5526 5522 5520 5518 5515 5513 5512 5510 5507 5505 5502 5499 5495 5490 5485 5479 5473 5468
5522 5525 5528 5531 5535 5537 5539 5541 5540 5539 5538 5538 5539 5542 5545 5545 5544 5543 5542 5537 5534 5531 5529 5527 5525 5523 5520 5517 5514 5512 5509 5506 5503 5502 5499 5497 5494 5490 5485 5479 5474 5469 5462
5522 5524 5525 5529 5532 5535 5538 5540 5540 5539 5538 5537 5536 5536 5539 5540 5540 5538 5536 5533 5531 5528 5526 5525 5522 5520 5517 5514 5511 5508 5505 5502 5499 5496 5494 5491 5488 5485 5480 5474 5468 5462 5455
5522 5523 5524 5527 5530 5533 5535 5536 5535 5536 5537 5535 5535 5536 5537 5536 5535 5533 5532 5530 5528 5526 5524 5522 5519 5517 5514 5511 5507 5504 5500 5497 5493 5490 5488 5485 5482 5479 5474 5468 5462 5455 5449
5522 5523 5524 5524 5528 5530 5532 5532 5532 5531 5535 5534 5533 5533 5531 5531 5531 5531 5529 5528 5527 5525 5523 5521 5517 5514 5511 5508 5504 5500 5496 5492 5489 5485 5482 5479 5476 5472 5467 5461 5456 5449 5442
5519 5522 5523 5524 5525 5527 5528 5528 5528 5527 5528 5531 5531 5530 5529 5528 5527 5527 5527 5525 5523 5521 5520 5517 5514 5510 5507 5504 5500 5496 5492 5488 5484 5481 5477 5473 5469 5465 5460 5454 5449 5442 5435
5517 5518 5519 5520 5523 5525 5523 5526 5527 5525 5525 5527 5527 5527 5526 5526 5525 5525 5524 5522 5520 5518 5516 5513 5510 5506 5502 5499 5495 5492 5488 5485 5481 5477 5472 5467 5463 5459 5454 5449 5442 5437 5429
5514 5513 5515 5516 5517 5517 5520 5522 5523 5522 5521 5522 5521 5523 5523 5522 5521 5520 5520 5518 5515 5512 5510 5507 5504 5500 5496 5493 5490 5487 5484 5480 5477 5473 5469 5464 5459 5455 5449 5443 5437 5429 5423
5511 5509 5509 5510 5511 5514 5517 5515 5517 5518 5520 5520 5520 5518 5518 5518 5518 5517 5515 5513 5510 5508 5505 5502 5498 5494 5490 5487 5483 5481 5478 5475 5472 5468 5464 5459 5454 5450 5444 5437 5432 5423 5416